This demonstration page uses our WeatherBlox Daily Observations layout. Learn more.

Left ArrowRight Arrow

39.51506, -84.39828

Hourly Observations for October 29, 2018

Temp ( °F °C ) Dew Point ( °F °C ) Humidity (%) Winds ( mph kmh ) Pressure ( in mb ) Visibility ( mi km ) Precip ( " mm )
12:15 am 00:15 Cloudy 50 9.8 41 5.2 73 73 NW 14 22 29.91 1013 10 16.0934 0 0
12:35 am 00:35 Cloudy 49 9.5 40 4.4 71 71 WNW 13 20 29.91 1013 10 16.0934 0 0
12:55 am 00:55 Cloudy 49 9.4 39 4.1 70 70 WNW 13 20 29.94 1014 10 16.0934 0 0
1:15 am 01:15 Clear 48 8.8 39 3.8 71 71 NW 7 11 29.94 1014 10 16.0934 0 0
1:35 am 01:35 Cloudy 47 8.5 39 3.8 73 73 WNW 9 15 29.97 1015 10 16.0934 0 0
1:55 am 01:55 Mostly Cloudy 47 8.4 39 4.1 75 75 WNW 9 15 29.97 1015 10 16.0934 0 0
2:15 am 02:15 Mostly Cloudy 47 8.2 40 4.4 77 77 WNW 8 13 29.97 1015 10 16.0934 0 0
2:35 am 02:35 Cloudy 47 8.6 40 4.6 76 76 W 8 13 29.97 1015 10 16.0934 0 0
2:55 am 02:55 Cloudy 48 8.7 40 4.5 75 75 W 10 17 29.97 1015 10 16.0934 0 0
3:15 am 03:15 Mostly Cloudy 47 8.4 40 4.4 76 76 W 8 13 30 1016 10 16.0934 0 0
3:35 am 03:35 Cloudy 47 8.5 41 4.8 78 78 W 5 7 30 1016 10 16.0934 0 0
3:55 am 03:55 Cloudy 47 8.5 41 5 79 79 W 7 11 30 1016 10 16.0934 0 0
4:15 am 04:15 Cloudy 47 8.4 41 5.2 80 80 WSW 7 11 30 1016 10 16.0934 0 0
4:35 am 04:35 Cloudy 47 8.5 42 5.4 81 81 W 8 13 30 1016 10 16.0934 0 0
4:55 am 04:55 Cloudy 47 8.5 42 5.5 82 82 WSW 8 13 30 1016 10 16.0934 0 0
5:15 am 05:15 Cloudy 47 8.5 42 5.5 82 82 WSW 10 17 30 1016 10 16.0934 0 0
5:35 am 05:35 Cloudy 47 8.4 42 5.3 81 81 W 9 15 30.03 1017 10 16.0934 0 0
5:55 am 05:55 Cloudy 47 8.3 41 5.1 80 80 W 7 11 30.03 1017 10 16.0934 0 0
6:15 am 06:15 Cloudy 47 8.3 41 5.1 80 80 W 7 11 30.03 1017 10 16.0934 0 0
6:35 am 06:35 Cloudy 46 7.8 41 5 83 83 WSW 7 11 30.06 1018 10 16.0934 0 0
6:55 am 06:55 Cloudy 46 7.5 41 5 84 84 WSW 5 7 30.06 1018 10 16.0934 0 0
7:15 am 07:15 Mostly Cloudy 44 6.9 40 4.5 85 85 WSW 6 9 30.06 1018 10 16.0934 0 0
7:35 am 07:35 Mostly Cloudy 43 6 40 4.3 89 89 SW 6 9 30.06 1018 10 16.0934 0 0
7:55 am 07:55 Cloudy 44 6.5 40 4.7 88 88 WSW 6 9 30.06 1018 10 16.0934 0 0
8:15 am 08:15 Mostly Cloudy 44 6.4 40 4.6 88 88 WSW 8 13 30.06 1018 10 16.0934 0 0
8:35 am 08:35 Cloudy 44 6.5 40 4.6 88 88 WSW 7 11 30.09 1019 10 16.0934 0 0
8:55 am 08:55 Cloudy 44 6.5 40 4.6 88 88 SW 9 15 30.09 1019 10 16.0934 0 0
9:15 am 09:15 Mostly Cloudy 43 6.3 40 4.6 89 89 WSW 8 13 30.09 1019 10 16.0934 0 0
9:35 am 09:35 Sunny 45 7.3 41 4.9 85 85 WSW 9 15 30.09 1019 10 16.0934 0 0
9:55 am 09:55 Sunny 46 7.9 41 4.9 82 82 WSW 12 19 30.12 1020 10 16.0934 0 0
10:15 am 10:15 Sunny 48 8.7 41 5.2 79 79 WSW 10 17 30.12 1020 10 16.0934 0 0
10:35 am 10:35 Sunny 49 9.3 41 5.2 76 76 W 14 22 30.12 1020 10 16.0934 0 0
10:55 am 10:55 Sunny 50 10.2 42 5.4 72 72 WSW 14 22 30.12 1020 10 16.0934 0 0
11:15 am 11:15 Sunny 51 10.4 41 5.2 70 70 WSW 13 20 30.12 1020 10 16.0934 0 0
11:35 am 11:35 Sunny 52 11.1 41 4.9 66 66 WSW 14 22 30.12 1020 10 16.0934 0 0
11:55 am 11:55 Sunny 53 11.6 41 4.9 64 64 W 15 24 30.12 1020 10 16.0934 0 0
12:15 pm 12:15 Sunny 54 12 41 4.8 62 62 WSW 12 19 30.12 1020 10 16.0934 0 0
12:35 pm 12:35 Partly Cloudy 55 12.6 40 4.5 58 58 WSW 15 24 30.12 1020 10 16.0934 0 0
12:55 pm 12:55 Mostly Cloudy 56 13.5 40 4.4 54 54 W 17 28 30.12 1020 10 16.0934 0 0
1:15 pm 13:15 Partly Cloudy 56 13.6 41 4.8 56 56 W 13 20 30.12 1020 10 16.0934 0 0
1:35 pm 13:35 Cloudy 56 13.2 38 3.6 52 52 WSW 13 20 30.12 1020 10 16.0934 0 0
1:55 pm 13:55 Mostly Cloudy 56 13.2 38 3.6 52 52 W 9 15 30.12 1020 10 16.0934 0 0
2:15 pm 14:15 Sunny 57 13.8 38 3.1 49 49 WSW 13 20 30.09 1019 10 16.0934 0 0
2:35 pm 14:35 Mostly Cloudy 59 14.9 39 3.7 47 47 WSW 15 24 30.09 1019 10 16.0934 0 0
2:55 pm 14:55 Partly Cloudy 58 14.4 36 2.4 45 45 WSW 13 20 30.09 1019 10 16.0934 0 0
3:15 pm 15:15 Partly Cloudy 59 14.9 37 3 45 45 W 8 13 30.09 1019 10 16.0934 0 0
3:35 pm 15:35 Partly Cloudy 59 15.2 36 2.2 42 42 W 12 19 30.09 1019 10 16.0934 0 0
3:55 pm 15:55 Partly Cloudy 59 15.1 36 2.1 42 42 WSW 13 20 30.06 1018 10 16.0934 0 0
4:15 pm 16:15 Partly Cloudy 59 15.1 34 1.1 39 39 WSW 9 15 30.06 1018 10 16.0934 0 0
4:35 pm 16:35 Sunny 59 15 35 1.4 40 40 W 10 17 30.09 1019 10 16.0934 0 0
4:55 pm 16:55 Sunny 59 15 34 1.3 40 40 W 12 19 30.09 1019 10 16.0934 0 0
5:15 pm 17:15 Sunny 58 14.7 34 0.9 39 39 W 12 19 30.09 1019 10 16.0934 0 0
5:35 pm 17:35 Sunny 58 14.3 34 1 41 41 WSW 7 11 30.09 1019 10 16.0934 0 0
5:55 pm 17:55 Sunny 57 13.7 35 1.5 44 44 W 6 9 30.09 1019 10 16.0934 0 0
6:15 pm 18:15 Sunny 55 12.9 35 1.5 46 46 W 5 7 30.09 1019 10 16.0934 0 0
6:35 pm 18:35 Sunny 53 11.8 35 1.4 49 49 WSW 5 7 30.09 1019 10 16.0934 0 0
6:55 pm 18:55 Clear 48 8.7 39 4.1 73 73 WSW 3 6 30.09 1019 10 16.0934 0 0
7:15 pm 19:15 Clear 47 8.2 39 3.9 75 75 Calm 30.09 1019 10 16.0934 0 0
7:35 pm 19:35 Clear 42 5.7 37 3 83 83 Calm 30.09 1019 10 16.0934 0 0
7:55 pm 19:55 Clear 43 6.2 40 4.4 88 88 Calm 30.09 1019 10 16.0934 0 0
8:15 pm 20:15 Clear 43 6.1 39 4.1 87 87 Calm 30.12 1020 10 16.0934 0 0
8:35 pm 20:35 Clear 42 5.8 39 3.7 87 87 Calm 30.12 1020 10 16.0934 0 0
8:55 pm 20:55 Clear 42 5.4 39 4 91 91 Calm 30.12 1020 10 16.0934 0 0
9:15 pm 21:15 Clear 40 4.3 38 3.1 92 92 Calm 30.15 1021 10 16.0934 0 0
9:35 pm 21:35 Clear 37 2.9 35 1.9 93 93 Calm 30.15 1021 10 16.0934 0 0
9:55 pm 21:55 Clear 38 3.5 37 2.8 95 95 Calm 30.15 1021 10 16.0934 0 0
10:15 pm 22:15 Clear 38 3.6 38 3.2 97 97 Calm 30.15 1021 10 16.0934 0 0
10:35 pm 22:35 Clear 38 3.1 37 2.7 97 97 Calm 30.15 1021 10 16.0934 0 0
10:55 pm 22:55 Clear 38 3.2 37 2.7 97 97 Calm 30.15 1021 10 16.0934 0 0
11:15 pm 23:15 Clear 38 3.2 37 2.6 96 96 Calm 30.15 1021 10 16.0934 0 0
11:35 pm 23:35 Clear 37 3 36 2.4 96 96 Calm 30.15 1021 10 16.0934 0 0
11:55 pm 23:55 Clear 37 2.9 36 2.4 97 97 Calm 30.15 1021 10 16.0934 0 0

Powered by AerisWeather